Time,TemperatureF,DewpointF,PressureIn,WindDirection,WindDirectionDegrees,WindSpeedMPH,WindSpeedGustMPH,Humidity,HourlyPrecipIn,Conditions,Clouds,dailyrainin,SoftwareType,DateUTC
2013-03-05 00:00:00,29.3,20.0,29.92,NW,320,9.2,9.2,68,0.00,-SN,,0.00,WeatherDisplay:10.37,2013-03-05 05:00:00,
2013-03-05 00:05:00,29.3,22.0,29.92,NW,310,6.9,6.9,74,0.00,-SN,,0.00,WeatherDisplay:10.37,2013-03-05 05:05:00,
2013-03-05 00:10:00,29.3,22.0,29.92,NW,310,6.9,6.9,74,0.00,-SN,,0.00,WeatherDisplay:10.37,2013-03-05 05:10:00,
2013-03-05 00:15:00,29.3,22.0,29.92,NW,310,6.9,6.9,74,0.00,-SN,,0.00,WeatherDisplay:10.37,2013-03-05 05:15:00,
2013-03-05 00:20:00,29.5,22.2,29.92,NW,310,6.9,6.9,74,0.00,-SN,,0.00,WeatherDisplay:10.37,2013-03-05 05:20:00,
2013-03-05 00:25:00,29.5,22.2,29.92,NW,310,6.9,6.9,74,0.00,-SN,,0.00,WeatherDisplay:10.37,2013-03-05 05:25:00,
2013-03-05 00:30:00,29.5,22.2,29.92,NW,310,6.9,6.9,74,0.00,-SN,,0.00,WeatherDisplay:10.37,2013-03-05 05:30:00,
2013-03-05 00:35:00,29.5,22.2,29.92,NW,310,6.9,6.9,74,0.00,-SN,,0.00,WeatherDisplay:10.37,2013-03-05 05:35:00,
2013-03-05 00:40:00,29.5,22.2,29.92,NW,310,6.9,6.9,74,0.00,-SN,,0.00,WeatherDisplay:10.37,2013-03-05 05:40:00,
2013-03-05 00:45:00,29.5,22.2,29.92,NW,310,6.9,6.9,74,0.00,-SN,,0.00,WeatherDisplay:10.37,2013-03-05 05:45:00,
2013-03-05 00:50:00,29.5,22.2,29.92,NW,310,6.9,6.9,74,0.00,-SN,,0.00,WeatherDisplay:10.37,2013-03-05 05:50:00,
2013-03-05 00:55:00,29.5,22.2,29.92,NW,310,6.9,6.9,74,0.00,-SN,,0.00,WeatherDisplay:10.37,2013-03-05 05:55:00,
2013-03-05 01:00:00,29.5,21.2,29.92,WNW,290,9.2,9.2,71,0.00,OVC,,0.00,WeatherDisplay:10.37,2013-03-05 06:00:00,
2013-03-05 01:05:00,29.7,21.4,29.92,WNW,290,9.2,24.2,71,0.00,OVC,,0.00,WeatherDisplay:10.37,2013-03-05 06:05:00,
2013-03-05 01:10:00,29.7,21.4,29.92,WNW,290,9.2,24.2,71,0.00,OVC,,0.00,WeatherDisplay:10.37,2013-03-05 06:10:00,
2013-03-05 01:15:00,29.7,21.4,29.95,WNW,290,9.2,24.2,71,0.00,OVC,,0.00,WeatherDisplay:10.37,2013-03-05 06:15:00,
2013-03-05 01:20:00,29.7,21.4,29.95,WNW,290,9.2,24.2,71,0.00,OVC,,0.00,WeatherDisplay:10.37,2013-03-05 06:20:00,
2013-03-05 01:25:00,29.7,21.4,29.95,WNW,290,9.2,24.2,71,0.00,OVC,,0.00,WeatherDisplay:10.37,2013-03-05 06:25:00,
2013-03-05 01:30:00,29.7,21.4,29.95,WNW,290,9.2,24.2,71,0.00,OVC,,0.00,WeatherDisplay:10.37,2013-03-05 06:30:00,
2013-03-05 01:35:00,29.7,21.4,29.95,WNW,290,9.2,24.2,71,0.00,OVC,,0.00,WeatherDisplay:10.37,2013-03-05 06:35:00,
2013-03-05 01:40:00,29.7,21.4,29.95,WNW,290,9.2,24.2,71,0.00,OVC,,0.00,WeatherDisplay:10.37,2013-03-05 06:40:00,
2013-03-05 01:45:00,29.7,21.4,29.95,WNW,290,9.2,24.2,71,0.00,OVC,,0.00,WeatherDisplay:10.37,2013-03-05 06:45:00,
2013-03-05 01:50:00,29.7,21.4,29.95,WNW,290,9.2,24.2,71,0.00,OVC,,0.00,WeatherDisplay:10.37,2013-03-05 06:50:00,
2013-03-05 01:55:00,29.7,21.4,29.95,WNW,290,9.2,24.2,71,0.00,OVC,,0.00,WeatherDisplay:10.37,2013-03-05 06:55:00,
2013-03-05 02:00:00,29.5,21.2,29.95,WNW,290,9.2,24.2,71,0.00,OVC,,0.00,WeatherDisplay:10.37,2013-03-05 07:00:00,
2013-03-05 02:05:00,29.5,21.2,29.95,WNW,290,9.2,24.2,71,0.00,OVC,,0.00,WeatherDisplay:10.37,2013-03-05 07:05:00,
2013-03-05 02:10:00,29.5,21.2,29.95,WNW,290,9.2,24.2,71,0.00,OVC,,0.00,WeatherDisplay:10.37,2013-03-05 07:10:00,
2013-03-05 02:15:00,29.5,21.2,29.95,WNW,290,9.2,24.2,71,0.00,OVC,,0.00,WeatherDisplay:10.37,2013-03-05 07:15:00,
2013-03-05 02:20:00,29.7,21.4,29.95,WNW,290,9.2,24.2,71,0.00,OVC,,0.00,WeatherDisplay:10.37,2013-03-05 07:20:00,
2013-03-05 02:25:00,29.7,21.4,29.95,WNW,290,9.2,24.2,71,0.00,OVC,,0.00,WeatherDisplay:10.37,2013-03-05 07:25:00,
2013-03-05 02:30:00,29.7,21.4,29.95,WNW,290,9.2,24.2,71,0.00,OVC,,0.00,WeatherDisplay:10.37,2013-03-05 07:30:00,
2013-03-05 02:35:00,29.7,21.4,29.95,WNW,290,9.2,24.2,71,0.00,OVC,,0.00,WeatherDisplay:10.37,2013-03-05 07:35:00,
2013-03-05 02:40:00,29.7,21.4,29.95,WNW,290,9.2,24.2,71,0.00,OVC,,0.00,WeatherDisplay:10.37,2013-03-05 07:40:00,
2013-03-05 02:45:00,29.7,21.4,29.95,WNW,290,9.2,24.2,71,0.00,OVC,,0.00,WeatherDisplay:10.37,2013-03-05 07:45:00,
2013-03-05 02:50:00,29.7,21.4,29.95,WNW,290,9.2,24.2,71,0.00,OVC,,0.00,WeatherDisplay:10.37,2013-03-05 07:50:00,
2013-03-05 02:55:00,29.7,21.4,29.95,WNW,290,9.2,24.2,71,0.00,OVC,,0.00,WeatherDisplay:10.37,2013-03-05 07:55:00,
2013-03-05 03:00:00,29.7,21.4,29.95,WNW,290,9.2,24.2,71,0.00,OVC,,0.00,WeatherDisplay:10.37,2013-03-05 08:00:00,
2013-03-05 03:05:00,29.7,21.4,29.95,WNW,290,9.2,24.2,71,0.00,OVC,,0.00,WeatherDisplay:10.37,2013-03-05 08:05:00,
2013-03-05 03:10:00,29.7,21.4,29.95,WNW,290,9.2,24.2,71,0.00,OVC,,0.00,WeatherDisplay:10.37,2013-03-05 08:10:00,
2013-03-05 03:15:00,29.7,20.4,29.95,WNW,300,13.8,24.2,68,0.00,OVC,,0.00,WeatherDisplay:10.37,2013-03-05 08:15:00,
2013-03-05 03:20:00,29.7,20.4,29.95,WNW,300,13.8,13.8,68,0.00,OVC,,0.00,WeatherDisplay:10.37,2013-03-05 08:20:00,
2013-03-05 03:25:00,29.7,20.4,29.95,WNW,300,13.8,13.8,68,0.00,OVC,,0.00,WeatherDisplay:10.37,2013-03-05 08:25:00,
2013-03-05 03:30:00,29.8,20.6,29.95,WNW,300,13.8,13.8,68,0.00,OVC,,0.00,WeatherDisplay:10.37,2013-03-05 08:30:00,
2013-03-05 03:35:00,29.8,20.6,29.95,WNW,300,13.8,13.8,68,0.00,OVC,,0.00,WeatherDisplay:10.37,2013-03-05 08:35:00,
2013-03-05 03:40:00,29.8,20.6,29.95,WNW,300,13.8,13.8,68,0.00,OVC,,0.00,WeatherDisplay:10.37,2013-03-05 08:40:00,
2013-03-05 03:45:00,30.0,20.7,29.95,WNW,300,13.8,13.8,68,0.00,OVC,,0.00,WeatherDisplay:10.37,2013-03-05 08:45:00,
2013-03-05 03:50:00,30.0,20.7,29.95,WNW,300,13.8,13.8,68,0.00,OVC,,0.00,WeatherDisplay:10.37,2013-03-05 08:50:00,
2013-03-05 03:55:00,30.0,20.7,29.95,WNW,300,13.8,13.8,68,0.00,OVC,,0.00,WeatherDisplay:10.37,2013-03-05 08:55:00,
2013-03-05 04:00:00,30.0,20.0,29.95,NW,310,9.2,13.8,66,0.00,OVC,,0.00,WeatherDisplay:10.37,2013-03-05 09:00:00,
2013-03-05 04:05:00,30.2,20.2,29.95,NW,310,9.2,9.2,66,0.00,OVC,,0.00,WeatherDisplay:10.37,2013-03-05 09:05:00,
2013-03-05 04:10:00,30.2,20.2,29.95,NW,310,9.2,9.2,66,0.00,OVC,,0.00,WeatherDisplay:10.37,2013-03-05 09:10:00,
2013-03-05 04:15:00,30.2,20.2,29.98,NW,310,9.2,9.2,66,0.00,OVC,,0.00,WeatherDisplay:10.37,2013-03-05 09:15:00,
2013-03-05 04:20:00,30.2,20.2,29.98,NW,310,9.2,9.2,66,0.00,OVC,,0.00,WeatherDisplay:10.37,2013-03-05 09:20:00,
2013-03-05 04:25:00,30.2,20.2,29.98,NW,310,9.2,9.2,66,0.00,OVC,,0.00,WeatherDisplay:10.37,2013-03-05 09:25:00,
2013-03-05 04:30:00,30.2,20.2,29.98,NW,310,9.2,9.2,66,0.00,OVC,,0.00,WeatherDisplay:10.37,2013-03-05 09:30:00,
2013-03-05 04:35:00,30.2,20.2,29.98,NW,310,9.2,9.2,66,0.00,OVC,,0.00,WeatherDisplay:10.37,2013-03-05 09:35:00,
2013-03-05 04:40:00,30.2,20.2,29.98,NW,310,9.2,9.2,66,0.00,OVC,,0.00,WeatherDisplay:10.37,2013-03-05 09:40:00,
2013-03-05 04:45:00,30.2,20.2,29.98,NW,310,9.2,9.2,66,0.00,OVC,,0.00,WeatherDisplay:10.37,2013-03-05 09:45:00,
2013-03-05 04:50:00,30.2,20.2,29.98,NW,310,9.2,9.2,66,0.00,OVC,,0.00,WeatherDisplay:10.37,2013-03-05 09:50:00,
2013-03-05 04:55:00,30.2,20.2,29.98,NW,310,9.2,9.2,66,0.00,OVC,,0.00,WeatherDisplay:10.37,2013-03-05 09:55:00,
2013-03-05 05:00:00,30.2,20.2,29.98,NW,310,9.2,9.2,66,0.00,OVC,,0.00,WeatherDisplay:10.37,2013-03-05 10:00:00,
2013-03-05 05:05:00,30.2,20.2,29.98,NW,310,9.2,9.2,66,0.00,OVC,,0.00,WeatherDisplay:10.37,2013-03-05 10:05:00,
2013-03-05 05:10:00,30.2,20.2,29.98,NW,310,9.2,9.2,66,0.00,OVC,,0.00,WeatherDisplay:10.37,2013-03-05 10:10:00,
2013-03-05 05:15:00,30.2,20.2,29.98,NW,320,10.4,10.4,66,0.00,OVC,,0.00,WeatherDisplay:10.37,2013-03-05 10:15:00,
2013-03-05 05:20:00,30.2,20.2,29.98,NW,320,10.4,10.4,66,0.00,OVC,,0.00,WeatherDisplay:10.37,2013-03-05 10:20:00,
2013-03-05 05:26:00,30.2,20.2,29.98,NW,320,10.4,10.4,66,0.00,OVC,,0.00,WeatherDisplay:10.37,2013-03-05 10:26:00,
2013-03-05 05:31:00,30.2,20.2,30.01,NW,320,10.4,10.4,66,0.00,OVC,,0.00,WeatherDisplay:10.37,2013-03-05 10:31:00,
2013-03-05 05:36:00,30.2,20.2,30.01,NW,320,10.4,10.4,66,0.00,OVC,,0.00,WeatherDisplay:10.37,2013-03-05 10:36:00,
2013-03-05 05:41:00,30.0,20.0,30.01,NW,320,10.4,10.4,66,0.00,OVC,,0.00,WeatherDisplay:10.37,2013-03-05 10:41:00,
2013-03-05 05:46:00,30.0,20.0,30.01,NW,320,10.4,10.4,66,0.00,OVC,,0.00,WeatherDisplay:10.37,2013-03-05 10:46:00,
2013-03-05 05:51:00,30.0,20.0,30.01,NW,320,10.4,10.4,66,0.00,OVC,,0.00,WeatherDisplay:10.37,2013-03-05 10:51:00,
2013-03-05 05:56:00,30.0,20.0,30.01,NW,320,10.4,10.4,66,0.00,OVC,,0.00,WeatherDisplay:10.37,2013-03-05 10:56:00,
2013-03-05 06:01:00,29.8,19.9,30.01,NW,320,10.4,10.4,66,0.00,OVC,,0.00,WeatherDisplay:10.37,2013-03-05 11:01:00,
2013-03-05 06:06:00,29.8,19.9,30.01,NW,320,10.4,10.4,66,0.00,OVC,,0.00,WeatherDisplay:10.37,2013-03-05 11:06:00,
2013-03-05 06:11:00,29.8,19.9,30.01,NW,320,10.4,10.4,66,0.00,OVC,,0.00,WeatherDisplay:10.37,2013-03-05 11:11:00,
2013-03-05 06:16:00,29.8,19.9,30.01,NW,310,13.8,13.8,66,0.00,OVC,,0.00,WeatherDisplay:10.37,2013-03-05 11:16:00,
2013-03-05 06:21:00,29.8,19.9,30.01,NW,310,13.8,13.8,66,0.00,OVC,,0.00,WeatherDisplay:10.37,2013-03-05 11:21:00,
2013-03-05 06:26:00,29.8,19.9,30.01,NW,310,13.8,13.8,66,0.00,OVC,,0.00,WeatherDisplay:10.37,2013-03-05 11:26:00,
2013-03-05 06:31:00,29.8,19.9,30.01,NW,310,13.8,13.8,66,0.00,OVC,,0.00,WeatherDisplay:10.37,2013-03-05 11:31:00,
2013-03-05 06:36:00,29.7,19.7,30.01,NW,310,13.8,13.8,66,0.00,OVC,,0.00,WeatherDisplay:10.37,2013-03-05 11:36:00,
2013-03-05 06:41:00,29.7,19.7,30.01,NW,310,13.8,13.8,66,0.00,OVC,,0.00,WeatherDisplay:10.37,2013-03-05 11:41:00,
2013-03-05 06:46:00,29.8,19.9,30.04,NW,310,13.8,13.8,66,0.00,OVC,,0.00,WeatherDisplay:10.37,2013-03-05 11:46:00,
2013-03-05 06:51:00,29.8,19.9,30.04,NW,310,13.8,13.8,66,0.00,OVC,,0.00,WeatherDisplay:10.37,2013-03-05 11:51:00,
2013-03-05 06:56:00,29.8,19.9,30.04,NW,310,13.8,13.8,66,0.00,OVC,,0.00,WeatherDisplay:10.37,2013-03-05 11:56:00,
2013-03-05 07:01:00,29.8,19.9,30.04,NNW,330,13.8,13.8,66,0.00,-SN,,0.00,WeatherDisplay:10.37,2013-03-05 12:01:00,
2013-03-05 07:06:00,29.8,19.9,30.04,NNW,330,13.8,13.8,66,0.00,-SN,,0.00,WeatherDisplay:10.37,2013-03-05 12:06:00,
2013-03-05 07:11:00,29.8,19.9,30.04,NNW,330,13.8,13.8,66,0.00,-SN,,0.00,WeatherDisplay:10.37,2013-03-05 12:11:00,
2013-03-05 07:16:00,30.0,20.0,30.04,NNW,330,13.8,13.8,66,0.00,-SN,,0.00,WeatherDisplay:10.37,2013-03-05 12:16:00,
2013-03-05 07:21:00,30.0,20.0,30.04,NNW,330,13.8,13.8,66,0.00,-SN,,0.00,WeatherDisplay:10.37,2013-03-05 12:21:00,
2013-03-05 07:26:00,30.0,20.0,30.04,NNW,330,13.8,13.8,66,0.00,-SN,,0.00,WeatherDisplay:10.37,2013-03-05 12:26:00,
2013-03-05 07:31:00,30.2,20.2,30.04,NNW,330,13.8,13.8,66,0.00,-SN,,0.00,WeatherDisplay:10.37,2013-03-05 12:31:00,
2013-03-05 07:36:00,30.2,20.2,30.04,NNW,330,13.8,13.8,66,0.00,-SN,,0.00,WeatherDisplay:10.37,2013-03-05 12:36:00,
2013-03-05 07:41:00,30.2,20.2,30.04,NNW,330,13.8,13.8,66,0.00,-SN,,0.00,WeatherDisplay:10.37,2013-03-05 12:41:00,
2013-03-05 07:46:00,30.4,20.4,30.04,NNW,330,13.8,13.8,66,0.00,-SN,,0.00,WeatherDisplay:10.37,2013-03-05 12:46:00,
2013-03-05 07:51:00,30.6,20.5,30.04,NNW,330,13.8,13.8,66,0.00,-SN,,0.00,WeatherDisplay:10.37,2013-03-05 12:51:00,
2013-03-05 07:56:00,30.7,20.7,30.04,NNW,330,13.8,13.8,66,0.00,-SN,,0.00,WeatherDisplay:10.37,2013-03-05 12:56:00,
2013-03-05 08:01:00,30.6,21.2,30.07,NW,320,9.2,13.8,68,0.00,-SN,,0.00,WeatherDisplay:10.37,2013-03-05 13:01:00,
2013-03-05 08:06:00,30.6,21.2,30.07,NW,320,9.2,9.2,68,0.00,-SN,,0.00,WeatherDisplay:10.37,2013-03-05 13:06:00,
2013-03-05 08:11:00,30.7,21.4,30.07,NW,320,9.2,9.2,68,0.00,-SN,,0.00,WeatherDisplay:10.37,2013-03-05 13:11:00,
2013-03-05 08:16:00,30.9,21.6,30.07,NW,320,9.2,9.2,68,0.00,-SN,,0.00,WeatherDisplay:10.37,2013-03-05 13:16:00,
2013-03-05 08:21:00,30.9,21.6,30.07,NW,320,9.2,9.2,68,0.00,-SN,,0.00,WeatherDisplay:10.37,2013-03-05 13:21:00,
2013-03-05 08:26:00,30.9,21.6,30.07,NW,320,9.2,9.2,68,0.00,-SN,,0.00,WeatherDisplay:10.37,2013-03-05 13:26:00,
2013-03-05 08:31:00,31.1,21.8,30.07,NW,320,9.2,9.2,68,0.00,-SN,,0.00,WeatherDisplay:10.37,2013-03-05 13:31:00,
2013-03-05 08:36:00,31.6,22.3,30.07,NW,320,9.2,9.2,68,0.00,-SN,,0.00,WeatherDisplay:10.37,2013-03-05 13:36:00,
2013-03-05 08:41:00,31.8,22.5,30.07,NW,320,9.2,9.2,68,0.00,-SN,,0.00,WeatherDisplay:10.37,2013-03-05 13:41:00,
2013-03-05 08:46:00,32.2,22.8,30.07,NW,320,9.2,9.2,68,0.00,-SN,,0.00,WeatherDisplay:10.37,2013-03-05 13:46:00,
2013-03-05 08:51:00,32.2,22.8,30.07,NW,320,9.2,9.2,68,0.00,-SN,,0.00,WeatherDisplay:10.37,2013-03-05 13:51:00,
2013-03-05 08:56:00,32.4,23.0,30.07,NW,320,9.2,9.2,68,0.00,-SN,,0.00,WeatherDisplay:10.37,2013-03-05 13:56:00,
2013-03-05 09:01:00,32.7,23.3,30.07,NW,320,9.2,9.2,68,0.00,-SN,,0.00,WeatherDisplay:10.37,2013-03-05 14:01:00,
2013-03-05 09:06:00,33.1,23.7,30.07,NW,320,9.2,9.2,68,0.00,-SN,,0.00,WeatherDisplay:10.37,2013-03-05 14:06:00,
2013-03-05 09:11:00,32.7,23.3,30.07,NW,320,9.2,9.2,68,0.00,-SN,,0.00,WeatherDisplay:10.37,2013-03-05 14:11:00,
2013-03-05 09:16:00,33.1,22.6,30.07,NW,320,11.5,11.5,65,0.00,OVC,,0.00,WeatherDisplay:10.37,2013-03-05 14:16:00,
2013-03-05 09:21:00,33.6,23.1,30.07,NW,320,11.5,11.5,65,0.00,OVC,,0.00,WeatherDisplay:10.37,2013-03-05 14:21:00,
2013-03-05 09:26:00,33.8,23.3,30.07,NW,320,11.5,11.5,65,0.00,OVC,,0.00,WeatherDisplay:10.37,2013-03-05 14:26:00,
2013-03-05 09:31:00,33.8,23.3,30.07,NW,320,11.5,11.5,65,0.00,OVC,,0.00,WeatherDisplay:10.37,2013-03-05 14:31:00,
2013-03-05 09:36:00,34.0,23.4,30.07,NW,320,11.5,11.5,65,0.00,OVC,,0.00,WeatherDisplay:10.37,2013-03-05 14:36:00,
2013-03-05 09:41:00,34.0,23.4,30.07,NW,320,11.5,11.5,65,0.00,OVC,,0.00,WeatherDisplay:10.37,2013-03-05 14:41:00,
2013-03-05 09:46:00,34.5,24.0,30.07,NW,320,11.5,11.5,65,0.00,OVC,,0.00,WeatherDisplay:10.37,2013-03-05 14:46:00,
2013-03-05 09:51:00,34.0,23.4,30.07,NW,320,11.5,11.5,65,0.00,OVC,,0.00,WeatherDisplay:10.37,2013-03-05 14:51:00,
2013-03-05 09:56:00,34.3,23.8,30.07,NW,320,11.5,11.5,65,0.00,OVC,,0.00,WeatherDisplay:10.37,2013-03-05 14:56:00,
2013-03-05 10:01:00,34.5,24.0,30.04,NW,320,11.5,11.5,65,0.00,OVC,,0.00,WeatherDisplay:10.37,2013-03-05 15:01:00,
2013-03-05 10:06:00,35.2,24.6,30.04,NW,320,11.5,11.5,65,0.00,OVC,,0.00,WeatherDisplay:10.37,2013-03-05 15:06:00,
2013-03-05 10:11:00,35.4,24.8,30.04,NW,320,11.5,11.5,65,0.00,OVC,,0.00,WeatherDisplay:10.37,2013-03-05 15:11:00,
2013-03-05 10:16:00,35.1,22.6,30.04,WNW,300,8.1,11.5,60,0.00,BKN,,0.00,WeatherDisplay:10.37,2013-03-05 15:16:00,
2013-03-05 10:21:00,35.4,22.9,30.04,WNW,300,8.1,8.1,60,0.00,BKN,,0.00,WeatherDisplay:10.37,2013-03-05 15:21:00,
2013-03-05 10:26:00,35.6,23.1,30.04,WNW,300,8.1,8.1,60,0.00,BKN,,0.00,WeatherDisplay:10.37,2013-03-05 15:26:00,
2013-03-05 10:31:00,35.8,23.2,30.04,WNW,300,8.1,8.1,60,0.00,BKN,,0.00,WeatherDisplay:10.37,2013-03-05 15:31:00,
2013-03-05 10:36:00,35.8,23.2,30.04,WNW,300,8.1,8.1,60,0.00,BKN,,0.00,WeatherDisplay:10.37,2013-03-05 15:36:00,
2013-03-05 10:41:00,36.1,23.6,30.04,WNW,300,8.1,8.1,60,0.00,BKN,,0.00,WeatherDisplay:10.37,2013-03-05 15:41:00,
2013-03-05 10:46:00,36.1,23.6,30.07,WNW,300,8.1,8.1,60,0.00,BKN,,0.00,WeatherDisplay:10.37,2013-03-05 15:46:00,
2013-03-05 10:51:00,36.1,23.6,30.07,WNW,300,8.1,8.1,60,0.00,BKN,,0.00,WeatherDisplay:10.37,2013-03-05 15:51:00,
2013-03-05 10:56:00,36.3,23.8,30.07,WNW,300,8.1,8.1,60,0.00,BKN,,0.00,WeatherDisplay:10.37,2013-03-05 15:56:00,
2013-03-05 11:01:00,36.3,23.8,30.07,WNW,300,8.1,8.1,60,0.00,BKN,,0.00,WeatherDisplay:10.37,2013-03-05 16:01:00,
2013-03-05 11:06:00,36.7,24.1,30.07,WNW,300,8.1,8.1,60,0.00,BKN,,0.00,WeatherDisplay:10.37,2013-03-05 16:06:00,
2013-03-05 11:11:00,37.0,24.4,30.07,WNW,300,8.1,8.1,60,0.00,BKN,,0.00,WeatherDisplay:10.37,2013-03-05 16:11:00,
2013-03-05 11:16:00,37.4,24.0,30.04,NNW,330,4.6,8.1,58,0.00,OVC,,0.00,WeatherDisplay:10.37,2013-03-05 16:16:00,
2013-03-05 11:21:00,37.4,24.0,30.04,NNW,330,4.6,4.6,58,0.00,OVC,,0.00,WeatherDisplay:10.37,2013-03-05 16:21:00,
2013-03-05 11:26:00,37.6,24.1,30.04,NNW,330,4.6,4.6,58,0.00,OVC,,0.00,WeatherDisplay:10.37,2013-03-05 16:26:00,
2013-03-05 11:31:00,37.6,24.1,30.04,NNW,330,4.6,4.6,58,0.00,OVC,,0.00,WeatherDisplay:10.37,2013-03-05 16:31:00,
2013-03-05 11:36:00,38.3,24.8,30.04,NNW,330,4.6,4.6,58,0.00,OVC,,0.00,WeatherDisplay:10.37,2013-03-05 16:36:00,
2013-03-05 11:41:00,38.7,25.1,30.04,NNW,330,4.6,4.6,58,0.00,OVC,,0.00,WeatherDisplay:10.37,2013-03-05 16:41:00,
2013-03-05 11:46:00,38.5,25.0,30.04,NNW,330,4.6,4.6,58,0.00,OVC,,0.00,WeatherDisplay:10.37,2013-03-05 16:46:00,
2013-03-05 11:51:00,39.0,25.5,30.04,NNW,330,4.6,4.6,58,0.00,OVC,,0.00,WeatherDisplay:10.37,2013-03-05 16:51:00,
2013-03-05 11:56:00,39.6,26.0,30.04,NNW,330,4.6,4.6,58,0.00,OVC,,0.00,WeatherDisplay:10.37,2013-03-05 16:56:00,
2013-03-05 12:01:00,39.4,25.8,30.04,NNW,330,4.6,4.6,58,0.00,OVC,,0.00,WeatherDisplay:10.37,2013-03-05 17:01:00,
2013-03-05 12:06:00,39.7,26.2,30.04,NNW,330,4.6,4.6,58,0.00,OVC,,0.00,WeatherDisplay:10.37,2013-03-05 17:06:00,
2013-03-05 12:11:00,39.4,25.8,30.04,NNW,330,4.6,4.6,58,0.00,OVC,,0.00,WeatherDisplay:10.37,2013-03-05 17:11:00,
2013-03-05 12:16:00,39.2,23.5,30.04,NNW,340,8.1,8.1,53,0.00,BKN,,0.00,WeatherDisplay:10.37,2013-03-05 17:16:00,
2013-03-05 12:21:00,39.6,23.8,30.04,NNW,340,8.1,8.1,53,0.00,BKN,,0.00,WeatherDisplay:10.37,2013-03-05 17:21:00,
2013-03-05 12:26:00,39.6,23.8,30.04,NNW,340,8.1,8.1,53,0.00,BKN,,0.00,WeatherDisplay:10.37,2013-03-05 17:26:00,
2013-03-05 12:31:00,39.9,24.2,30.04,NNW,340,8.1,8.1,53,0.00,BKN,,0.00,WeatherDisplay:10.37,2013-03-05 17:31:00,
2013-03-05 12:36:00,40.3,24.5,30.04,NNW,340,8.1,8.1,53,0.00,BKN,,0.00,WeatherDisplay:10.37,2013-03-05 17:36:00,
2013-03-05 12:41:00,40.3,24.5,30.04,NNW,340,8.1,8.1,53,0.00,BKN,,0.00,WeatherDisplay:10.37,2013-03-05 17:41:00,
2013-03-05 12:46:00,40.3,24.5,30.04,NNW,340,8.1,8.1,53,0.00,BKN,,0.00,WeatherDisplay:10.37,2013-03-05 17:46:00,
2013-03-05 12:51:00,40.1,24.3,30.04,NNW,340,8.1,8.1,53,0.00,BKN,,0.00,WeatherDisplay:10.37,2013-03-05 17:51:00,
2013-03-05 12:56:00,40.5,24.7,30.04,NNW,340,8.1,8.1,53,0.00,BKN,,0.00,WeatherDisplay:10.37,2013-03-05 17:56:00,
2013-03-05 13:01:00,40.3,24.5,30.04,NNW,340,8.1,8.1,53,0.00,BKN,,0.00,WeatherDisplay:10.37,2013-03-05 18:01:00,
2013-03-05 13:06:00,40.5,24.7,30.04,NNW,340,8.1,8.1,53,0.00,BKN,,0.00,WeatherDisplay:10.37,2013-03-05 18:06:00,
2013-03-05 13:11:00,40.6,24.8,30.04,NNW,340,8.1,8.1,53,0.00,BKN,,0.00,WeatherDisplay:10.37,2013-03-05 18:11:00,
2013-03-05 13:16:00,40.8,24.5,30.04,North,360,8.1,8.1,52,0.00,BKN,,0.00,WeatherDisplay:10.37,2013-03-05 18:16:00,
2013-03-05 13:21:00,40.8,24.5,30.04,North,360,8.1,8.1,52,0.00,BKN,,0.00,WeatherDisplay:10.37,2013-03-05 18:21:00,
2013-03-05 13:26:00,41.0,24.7,30.04,North,360,8.1,8.1,52,0.00,BKN,,0.00,WeatherDisplay:10.37,2013-03-05 18:26:00,
2013-03-05 13:31:00,41.5,25.2,30.04,North,360,8.1,8.1,52,0.00,BKN,,0.00,WeatherDisplay:10.37,2013-03-05 18:31:00,
2013-03-05 13:36:00,41.9,25.5,30.04,North,360,8.1,8.1,52,0.00,BKN,,0.00,WeatherDisplay:10.37,2013-03-05 18:36:00,
2013-03-05 13:41:00,41.7,25.4,30.04,North,360,8.1,8.1,52,0.00,BKN,,0.00,WeatherDisplay:10.37,2013-03-05 18:41:00,
2013-03-05 13:46:00,41.5,25.2,30.04,North,360,8.1,8.1,52,0.00,BKN,,0.00,WeatherDisplay:10.37,2013-03-05 18:46:00,
2013-03-05 13:51:00,41.5,25.2,30.04,North,360,8.1,8.1,52,0.00,BKN,,0.00,WeatherDisplay:10.37,2013-03-05 18:51:00,
2013-03-05 13:56:00,42.1,25.7,30.04,North,360,8.1,8.1,52,0.00,BKN,,0.00,WeatherDisplay:10.37,2013-03-05 18:56:00,
2013-03-05 14:01:00,41.7,25.4,30.04,North,360,10.4,10.4,52,0.00,BKN,,0.00,WeatherDisplay:10.37,2013-03-05 19:01:00,
2013-03-05 14:06:00,41.4,25.0,30.04,North,360,10.4,10.4,52,0.00,BKN,,0.00,WeatherDisplay:10.37,2013-03-05 19:06:00,
2013-03-05 14:11:00,41.5,25.2,30.04,North,360,10.4,10.4,52,0.00,BKN,,0.00,WeatherDisplay:10.37,2013-03-05 19:11:00,
2013-03-05 14:16:00,41.5,25.2,30.01,North,360,10.4,10.4,52,0.00,BKN,,0.00,WeatherDisplay:10.37,2013-03-05 19:16:00,
2013-03-05 14:21:00,41.9,25.5,30.01,North,360,10.4,10.4,52,0.00,BKN,,0.00,WeatherDisplay:10.37,2013-03-05 19:21:00,
2013-03-05 14:26:00,41.7,25.4,30.01,North,360,10.4,10.4,52,0.00,BKN,,0.00,WeatherDisplay:10.37,2013-03-05 19:26:00,
2013-03-05 14:31:00,42.1,25.7,30.04,North,360,10.4,10.4,52,0.00,BKN,,0.00,WeatherDisplay:10.37,2013-03-05 19:31:00,
2013-03-05 14:36:00,42.1,25.7,30.04,North,360,10.4,10.4,52,0.00,BKN,,0.00,WeatherDisplay:10.37,2013-03-05 19:36:00,
2013-03-05 14:41:00,42.1,25.7,30.04,North,360,10.4,10.4,52,0.00,BKN,,0.00,WeatherDisplay:10.37,2013-03-05 19:41:00,
2013-03-05 14:46:00,42.3,25.9,30.04,North,360,10.4,10.4,52,0.00,BKN,,0.00,WeatherDisplay:10.37,2013-03-05 19:46:00,
2013-03-05 14:51:00,42.4,26.0,30.04,North,360,10.4,10.4,52,0.00,BKN,,0.00,WeatherDisplay:10.37,2013-03-05 19:51:00,
2013-03-05 14:56:00,42.1,25.7,30.04,North,360,10.4,10.4,52,0.00,BKN,,0.00,WeatherDisplay:10.37,2013-03-05 19:56:00,
2013-03-05 15:02:00,42.1,25.7,30.04,North,360,10.4,10.4,52,0.00,BKN,,0.00,WeatherDisplay:10.37,2013-03-05 20:02:00,
2013-03-05 15:07:00,41.7,25.4,30.04,North,360,10.4,10.4,52,0.00,BKN,,0.00,WeatherDisplay:10.37,2013-03-05 20:07:00,
2013-03-05 15:12:00,41.7,25.4,30.04,North,360,10.4,10.4,52,0.00,BKN,,0.00,WeatherDisplay:10.37,2013-03-05 20:12:00,
2013-03-05 15:17:00,41.7,23.5,30.04,North,10,12.7,12.7,48,0.00,BKN,,0.00,WeatherDisplay:10.37,2013-03-05 20:17:00,
2013-03-05 15:22:00,41.7,23.5,30.04,North,10,12.7,12.7,48,0.00,BKN,,0.00,WeatherDisplay:10.37,2013-03-05 20:22:00,
2013-03-05 15:27:00,41.5,23.3,30.04,North,10,12.7,12.7,48,0.00,BKN,,0.00,WeatherDisplay:10.37,2013-03-05 20:27:00,
2013-03-05 15:32:00,41.4,23.1,30.04,North,10,12.7,12.7,48,0.00,BKN,,0.00,WeatherDisplay:10.37,2013-03-05 20:32:00,
2013-03-05 15:37:00,41.4,23.1,30.04,North,10,12.7,12.7,48,0.00,BKN,,0.00,WeatherDisplay:10.37,2013-03-05 20:37:00,
2013-03-05 15:42:00,41.5,23.3,30.04,North,10,12.7,12.7,48,0.00,BKN,,0.00,WeatherDisplay:10.37,2013-03-05 20:42:00,
2013-03-05 15:47:00,41.2,23.0,30.04,North,10,12.7,12.7,48,0.00,BKN,,0.00,WeatherDisplay:10.37,2013-03-05 20:47:00,
2013-03-05 15:52:00,41.4,23.1,30.04,North,10,12.7,12.7,48,0.00,BKN,,0.00,WeatherDisplay:10.37,2013-03-05 20:52:00,
2013-03-05 15:57:00,41.2,23.0,30.04,North,10,12.7,12.7,48,0.00,BKN,,0.00,WeatherDisplay:10.37,2013-03-05 20:57:00,
2013-03-05 16:02:00,41.2,23.0,30.04,North,10,12.7,12.7,48,0.00,BKN,,0.00,WeatherDisplay:10.37,2013-03-05 21:02:00,
2013-03-05 16:07:00,41.0,22.8,30.04,North,10,12.7,12.7,48,0.00,BKN,,0.00,WeatherDisplay:10.37,2013-03-05 21:07:00,
2013-03-05 16:12:00,40.6,22.5,30.04,North,10,12.7,12.7,48,0.00,BKN,,0.00,WeatherDisplay:10.37,2013-03-05 21:12:00,
2013-03-05 16:17:00,40.6,24.4,30.04,NNE,30,11.5,11.5,52,0.00,FEW,,0.00,WeatherDisplay:10.37,2013-03-05 21:17:00,
2013-03-05 16:22:00,40.5,24.2,30.04,NNE,30,11.5,11.5,52,0.00,FEW,,0.00,WeatherDisplay:10.37,2013-03-05 21:22:00,
2013-03-05 16:27:00,40.5,24.2,30.04,NNE,30,11.5,11.5,52,0.00,FEW,,0.00,WeatherDisplay:10.37,2013-03-05 21:27:00,
2013-03-05 16:32:00,40.5,24.2,30.04,NNE,30,11.5,11.5,52,0.00,FEW,,0.00,WeatherDisplay:10.37,2013-03-05 21:32:00,
2013-03-05 16:37:00,40.3,24.0,30.04,NNE,30,11.5,11.5,52,0.00,FEW,,0.00,WeatherDisplay:10.37,2013-03-05 21:37:00,
2013-03-05 16:42:00,40.1,23.9,30.04,NNE,30,11.5,11.5,52,0.00,FEW,,0.00,WeatherDisplay:10.37,2013-03-05 21:42:00,
2013-03-05 16:47:00,40.1,23.9,30.04,NNE,30,11.5,11.5,52,0.00,FEW,,0.00,WeatherDisplay:10.37,2013-03-05 21:47:00,
2013-03-05 16:52:00,39.9,23.7,30.04,NNE,30,11.5,11.5,52,0.00,FEW,,0.00,WeatherDisplay:10.37,2013-03-05 21:52:00,
2013-03-05 16:57:00,39.7,23.5,30.04,NNE,30,11.5,11.5,52,0.00,FEW,,0.00,WeatherDisplay:10.37,2013-03-05 21:57:00,
2013-03-05 17:02:00,39.6,24.3,30.04,NE,40,11.5,11.5,54,0.00,FEW,,0.00,WeatherDisplay:10.37,2013-03-05 22:02:00,
2013-03-05 17:07:00,39.6,24.3,30.04,NE,40,11.5,11.5,54,0.00,FEW,,0.00,WeatherDisplay:10.37,2013-03-05 22:07:00,
2013-03-05 17:12:00,39.4,24.1,30.04,NE,40,11.5,11.5,54,0.00,FEW,,0.00,WeatherDisplay:10.37,2013-03-05 22:12:00,
2013-03-05 17:17:00,39.0,23.8,30.04,NE,40,11.5,11.5,54,0.00,FEW,,0.00,WeatherDisplay:10.37,2013-03-05 22:17:00,
2013-03-05 17:22:00,38.8,23.6,30.04,NE,40,11.5,11.5,54,0.00,FEW,,0.00,WeatherDisplay:10.37,2013-03-05 22:22:00,
2013-03-05 17:27:00,38.7,23.4,30.04,NE,40,11.5,11.5,54,0.00,FEW,,0.00,WeatherDisplay:10.37,2013-03-05 22:27:00,
2013-03-05 17:32:00,38.3,23.1,30.04,NE,40,11.5,11.5,54,0.00,FEW,,0.00,WeatherDisplay:10.37,2013-03-05 22:32:00,
2013-03-05 17:37:00,38.3,23.1,30.04,NE,40,11.5,11.5,54,0.00,FEW,,0.00,WeatherDisplay:10.37,2013-03-05 22:37:00,
2013-03-05 17:42:00,38.1,22.9,30.04,NE,40,11.5,11.5,54,0.00,FEW,,0.00,WeatherDisplay:10.37,2013-03-05 22:42:00,
2013-03-05 17:47:00,37.8,22.6,30.04,NE,40,11.5,11.5,54,0.00,FEW,,0.00,WeatherDisplay:10.37,2013-03-05 22:47:00,
2013-03-05 17:52:00,37.6,22.4,30.04,NE,40,11.5,11.5,54,0.00,FEW,,0.00,WeatherDisplay:10.37,2013-03-05 22:52:00,
2013-03-05 17:57:00,37.4,22.3,30.04,NE,40,11.5,11.5,54,0.00,FEW,,0.00,WeatherDisplay:10.37,2013-03-05 22:57:00,
2013-03-05 18:02:00,37.0,21.9,30.04,NE,40,11.5,11.5,54,0.00,FEW,,0.00,WeatherDisplay:10.37,2013-03-05 23:02:00,
2013-03-05 18:07:00,36.9,21.7,30.04,NE,40,11.5,11.5,54,0.00,FEW,,0.00,WeatherDisplay:10.37,2013-03-05 23:07:00,
2013-03-05 18:12:00,36.9,21.7,30.04,NE,40,11.5,11.5,54,0.00,FEW,,0.00,WeatherDisplay:10.37,2013-03-05 23:12:00,
2013-03-05 18:17:00,36.7,24.5,30.07,NNE,20,5.8,5.8,61,0.00,FEW,,0.00,WeatherDisplay:10.37,2013-03-05 23:17:00,
2013-03-05 18:22:00,36.5,24.3,30.07,NNE,20,5.8,5.8,61,0.00,FEW,,0.00,WeatherDisplay:10.37,2013-03-05 23:22:00,
2013-03-05 18:27:00,36.3,24.1,30.07,NNE,20,5.8,5.8,61,0.00,FEW,,0.00,WeatherDisplay:10.37,2013-03-05 23:27:00,
2013-03-05 18:32:00,36.3,24.1,30.07,NNE,20,5.8,5.8,61,0.00,FEW,,0.00,WeatherDisplay:10.37,2013-03-05 23:32:00,
2013-03-05 18:37:00,36.1,24.0,30.07,NNE,20,5.8,5.8,61,0.00,FEW,,0.00,WeatherDisplay:10.37,2013-03-05 23:37:00,
2013-03-05 18:42:00,36.0,23.8,30.04,NNE,20,5.8,5.8,61,0.00,FEW,,0.00,WeatherDisplay:10.37,2013-03-05 23:42:00,
2013-03-05 18:47:00,36.0,23.8,30.04,NNE,20,5.8,5.8,61,0.00,FEW,,0.00,WeatherDisplay:10.37,2013-03-05 23:47:00,
2013-03-05 18:52:00,35.8,23.6,30.04,NNE,20,5.8,5.8,61,0.00,FEW,,0.00,WeatherDisplay:10.37,2013-03-05 23:52:00,
2013-03-05 18:57:00,35.8,23.6,30.04,NNE,20,5.8,5.8,61,0.00,FEW,,0.00,WeatherDisplay:10.37,2013-03-05 23:57:00,
2013-03-05 19:02:00,35.8,25.5,30.04,NNE,30,8.1,8.1,66,0.00,FEW,,0.00,WeatherDisplay:10.37,2013-03-06 00:02:00,
2013-03-05 19:07:00,35.6,25.4,30.04,NNE,30,8.1,8.1,66,0.00,FEW,,0.00,WeatherDisplay:10.37,2013-03-06 00:07:00,
2013-03-05 19:12:00,35.6,25.4,30.04,NNE,30,8.1,8.1,66,0.00,FEW,,0.00,WeatherDisplay:10.37,2013-03-06 00:12:00,
2013-03-05 19:17:00,35.4,25.2,30.04,NNE,30,8.1,8.1,66,0.00,FEW,,0.00,WeatherDisplay:10.37,2013-03-06 00:17:00,
2013-03-05 19:22:00,35.4,25.2,30.04,NNE,30,8.1,8.1,66,0.00,FEW,,0.00,WeatherDisplay:10.37,2013-03-06 00:22:00,
2013-03-05 19:27:00,35.4,25.2,30.04,NNE,30,8.1,8.1,66,0.00,FEW,,0.00,WeatherDisplay:10.37,2013-03-06 00:27:00,
2013-03-05 19:32:00,35.2,25.0,30.04,NNE,30,8.1,8.1,66,0.00,FEW,,0.00,WeatherDisplay:10.37,2013-03-06 00:32:00,
2013-03-05 19:37:00,35.1,24.8,30.04,NNE,30,8.1,8.1,66,0.00,FEW,,0.00,WeatherDisplay:10.37,2013-03-06 00:37:00,
2013-03-05 19:42:00,35.1,24.8,30.04,NNE,30,8.1,8.1,66,0.00,FEW,,0.00,WeatherDisplay:10.37,2013-03-06 00:42:00,
2013-03-05 19:47:00,35.1,24.8,30.04,NNE,30,8.1,8.1,66,0.00,FEW,,0.00,WeatherDisplay:10.37,2013-03-06 00:47:00,
2013-03-05 19:52:00,34.9,24.7,30.04,NNE,30,8.1,8.1,66,0.00,FEW,,0.00,WeatherDisplay:10.37,2013-03-06 00:52:00,
2013-03-05 19:57:00,34.7,24.5,30.07,NNE,30,8.1,8.1,66,0.00,FEW,,0.00,WeatherDisplay:10.37,2013-03-06 00:57:00,
2013-03-05 20:02:00,34.5,24.3,30.07,NNE,30,8.1,8.1,66,0.00,FEW,,0.00,WeatherDisplay:10.37,2013-03-06 01:02:00,
2013-03-05 20:07:00,34.5,24.3,30.07,NNE,30,8.1,8.1,66,0.00,FEW,,0.00,WeatherDisplay:10.37,2013-03-06 01:07:00,
2013-03-05 20:13:00,34.3,24.2,30.07,NNE,30,8.1,8.1,66,0.00,FEW,,0.00,WeatherDisplay:10.37,2013-03-06 01:13:00,
2013-03-05 20:18:00,34.3,25.2,30.07,NE,40,9.2,9.2,69,0.00,FEW,,0.00,WeatherDisplay:10.37,2013-03-06 01:18:00,
2013-03-05 20:23:00,34.2,25.0,30.07,NE,40,9.2,9.2,69,0.00,FEW,,0.00,WeatherDisplay:10.37,2013-03-06 01:23:00,
2013-03-05 20:28:00,34.0,24.9,30.07,NE,40,9.2,9.2,69,0.00,FEW,,0.00,WeatherDisplay:10.37,2013-03-06 01:28:00,
2013-03-05 20:33:00,34.0,24.9,30.07,NE,40,9.2,9.2,69,0.00,FEW,,0.00,WeatherDisplay:10.37,2013-03-06 01:33:00,
2013-03-05 20:38:00,33.6,24.5,30.07,NE,40,9.2,9.2,69,0.00,FEW,,0.00,WeatherDisplay:10.37,2013-03-06 01:38:00,
2013-03-05 20:43:00,33.4,24.4,30.07,NE,40,9.2,9.2,69,0.00,FEW,,0.00,WeatherDisplay:10.37,2013-03-06 01:43:00,
2013-03-05 20:48:00,33.3,24.2,30.07,NE,40,9.2,9.2,69,0.00,FEW,,0.00,WeatherDisplay:10.37,2013-03-06 01:48:00,
2013-03-05 20:53:00,33.1,24.0,30.07,NE,40,9.2,9.2,69,0.00,FEW,,0.00,WeatherDisplay:10.37,2013-03-06 01:53:00,
2013-03-05 20:58:00,33.1,24.0,30.07,NE,40,9.2,9.2,69,0.00,FEW,,0.00,WeatherDisplay:10.37,2013-03-06 01:58:00,
2013-03-05 21:03:00,33.1,26.0,30.07,NNE,20,8.1,8.1,75,0.00,CLR,,0.00,WeatherDisplay:10.37,2013-03-06 02:03:00,
2013-03-05 21:08:00,32.7,25.7,30.07,NNE,20,8.1,8.1,75,0.00,CLR,,0.00,WeatherDisplay:10.37,2013-03-06 02:08:00,
2013-03-05 21:13:00,32.7,25.7,30.07,NNE,20,8.1,8.1,75,0.00,CLR,,0.00,WeatherDisplay:10.37,2013-03-06 02:13:00,
2013-03-05 21:18:00,32.5,25.5,30.07,NNE,20,8.1,8.1,75,0.00,CLR,,0.00,WeatherDisplay:10.37,2013-03-06 02:18:00,
2013-03-05 21:23:00,32.5,25.5,30.07,NNE,20,8.1,8.1,75,0.00,CLR,,0.00,WeatherDisplay:10.37,2013-03-06 02:23:00,
2013-03-05 21:28:00,32.4,25.3,30.07,NNE,20,8.1,8.1,75,0.00,CLR,,0.00,WeatherDisplay:10.37,2013-03-06 02:28:00,
2013-03-05 21:33:00,32.4,25.3,30.07,NNE,20,8.1,8.1,75,0.00,CLR,,0.00,WeatherDisplay:10.37,2013-03-06 02:33:00,
2013-03-05 21:38:00,32.5,25.5,30.07,NNE,20,8.1,8.1,75,0.00,CLR,,0.00,WeatherDisplay:10.37,2013-03-06 02:38:00,
2013-03-05 21:43:00,32.5,25.5,30.10,NNE,20,8.1,8.1,75,0.00,CLR,,0.00,WeatherDisplay:10.37,2013-03-06 02:43:00,
2013-03-05 21:48:00,32.5,25.5,30.10,NNE,20,8.1,8.1,75,0.00,CLR,,0.00,WeatherDisplay:10.37,2013-03-06 02:48:00,
2013-03-05 21:53:00,32.5,25.5,30.10,NNE,20,8.1,8.1,75,0.00,CLR,,0.00,WeatherDisplay:10.37,2013-03-06 02:53:00,
2013-03-05 21:58:00,32.4,25.3,30.10,NNE,20,8.1,8.1,75,0.00,CLR,,0.00,WeatherDisplay:10.37,2013-03-06 02:58:00,
2013-03-05 22:03:00,32.0,25.9,30.10,North,360,3.5,3.5,78,0.00,SCT,,0.00,WeatherDisplay:10.37,2013-03-06 03:03:00,
2013-03-05 22:08:00,31.6,25.6,30.10,North,360,3.5,3.5,78,0.00,SCT,,0.00,WeatherDisplay:10.37,2013-03-06 03:08:00,
2013-03-05 22:13:00,31.5,25.4,30.10,North,360,3.5,3.5,78,0.00,SCT,,0.00,WeatherDisplay:10.37,2013-03-06 03:13:00,
2013-03-05 22:18:00,31.3,25.2,30.10,North,360,3.5,3.5,78,0.00,SCT,,0.00,WeatherDisplay:10.37,2013-03-06 03:18:00,
2013-03-05 22:23:00,31.3,25.2,30.10,North,360,3.5,3.5,78,0.00,SCT,,0.00,WeatherDisplay:10.37,2013-03-06 03:23:00,
2013-03-05 22:28:00,31.1,25.0,30.07,North,360,3.5,3.5,78,0.00,SCT,,0.00,WeatherDisplay:10.37,2013-03-06 03:28:00,
2013-03-05 22:33:00,31.1,25.0,30.07,North,360,3.5,3.5,78,0.00,SCT,,0.00,WeatherDisplay:10.37,2013-03-06 03:33:00,
2013-03-05 22:38:00,30.9,24.9,30.07,North,360,3.5,3.5,78,0.00,SCT,,0.00,WeatherDisplay:10.37,2013-03-06 03:38:00,
2013-03-05 22:43:00,30.9,24.9,30.07,North,360,3.5,3.5,78,0.00,SCT,,0.00,WeatherDisplay:10.37,2013-03-06 03:43:00,
2013-03-05 22:48:00,30.9,24.9,30.07,North,360,3.5,3.5,78,0.00,SCT,,0.00,WeatherDisplay:10.37,2013-03-06 03:48:00,
2013-03-05 22:53:00,30.7,24.7,30.07,North,360,3.5,3.5,78,0.00,SCT,,0.00,WeatherDisplay:10.37,2013-03-06 03:53:00,
2013-03-05 22:58:00,30.9,24.9,30.07,North,360,3.5,3.5,78,0.00,SCT,,0.00,WeatherDisplay:10.37,2013-03-06 03:58:00,
2013-03-05 23:03:00,30.7,25.6,30.07,North,10,6.9,6.9,81,0.00,FEW,,0.00,WeatherDisplay:10.37,2013-03-06 04:03:00,
2013-03-05 23:08:00,30.7,25.6,30.07,North,10,6.9,6.9,81,0.00,FEW,,0.00,WeatherDisplay:10.37,2013-03-06 04:08:00,
2013-03-05 23:13:00,30.6,25.4,30.07,North,10,6.9,6.9,81,0.00,FEW,,0.00,WeatherDisplay:10.37,2013-03-06 04:13:00,
2013-03-05 23:18:00,30.6,25.4,30.07,North,10,6.9,6.9,81,0.00,FEW,,0.00,WeatherDisplay:10.37,2013-03-06 04:18:00,
2013-03-05 23:23:00,30.6,25.4,30.07,North,10,6.9,6.9,81,0.00,FEW,,0.00,WeatherDisplay:10.37,2013-03-06 04:23:00,
2013-03-05 23:28:00,30.4,25.2,30.04,North,10,6.9,6.9,81,0.00,FEW,,0.00,WeatherDisplay:10.37,2013-03-06 04:28:00,
2013-03-05 23:33:00,30.4,25.2,30.04,North,10,6.9,6.9,81,0.00,FEW,,0.00,WeatherDisplay:10.37,2013-03-06 04:33:00,
2013-03-05 23:38:00,30.2,25.1,30.04,North,10,6.9,6.9,81,0.00,FEW,,0.00,WeatherDisplay:10.37,2013-03-06 04:38:00,
2013-03-05 23:43:00,30.2,25.1,30.07,North,10,6.9,6.9,81,0.00,FEW,,0.00,WeatherDisplay:10.37,2013-03-06 04:43:00,
2013-03-05 23:48:00,30.2,25.1,30.07,North,10,6.9,6.9,81,0.00,FEW,,0.00,WeatherDisplay:10.37,2013-03-06 04:48:00,
2013-03-05 23:53:00,30.0,24.9,30.07,North,10,6.9,6.9,81,0.00,FEW,,0.00,WeatherDisplay:10.37,2013-03-06 04:53:00,
2013-03-05 23:58:00,30.2,25.1,30.04,North,10,6.9,6.9,81,0.00,FEW,,0.00,WeatherDisplay:10.37,2013-03-06 04:58:00,